Hourly Weather Oqmang'it

Today, 24 July, Saturday

Time Temperature Precipitation Wind Pressure Humidity
00:00 +33°C° 0 mm 4 mps 744 mmHg 16%
01:00 +32°C° 0 mm 4 mps 744 mmHg 16%
02:00 +31°C° 0 mm 3 mps 744 mmHg 17%
03:00 +30°C° 0 mm 3 mps 744 mmHg 18%
04:00 +30°C° 0 mm 3 mps 745 mmHg 18%
05:00 +31°C° 0 mm 2 mps 745 mmHg 17%
06:00 +34°C° 0 mm 2 mps 745 mmHg 17%
07:00 +35°C° 0 mm 2 mps 746 mmHg 16%
08:00 +36°C° 0 mm 1 mps 746 mmHg 14%
09:00 +39°C° 0 mm 1 mps 746 mmHg 11%
10:00 +42°C° 0 mm 1 mps 746 mmHg 9%
11:00 +43°C° 0 mm 1 mps 746 mmHg 9%
12:00 +41°C° 0 mm 0 mps 746 mmHg 8%
13:00 +42°C° 0 mm 0 mps 746 mmHg 8%
14:00 +45°C° 0 mm 1 mps 745 mmHg 8%
15:00 +45°C° 0 mm 1 mps 745 mmHg 8%
16:00 +45°C° 0 mm 1 mps 745 mmHg 8%
17:00 +45°C° 0 mm 2 mps 746 mmHg 10%
18:00 +43°C° 0 mm 2 mps 746 mmHg 11%
19:00 +42°C° 0 mm 2 mps 746 mmHg 12%
20:00 +42°C° 0 mm 3 mps 746 mmHg 13%
21:00 +39°C° 0 mm 3 mps 746 mmHg 13%
22:00 +38°C° 0 mm 3 mps 747 mmHg 14%
23:00 +37°C° 0 mm 3 mps 747 mmHg 14%

Tomorrow, 25 July, Sunday

Time Temperature Precipitation Wind Pressure Humidity
00:00 +37°C° 0 mm 3 mps 747 mmHg 15%
01:00 +36°C° 0 mm 3 mps 747 mmHg 15%
02:00 +36°C° 0 mm 3 mps 747 mmHg 16%
03:00 +35°C° 0 mm 3 mps 747 mmHg 16%
04:00 +35°C° 0 mm 3 mps 747 mmHg 17%
05:00 +36°C° 0 mm 2 mps 748 mmHg 16%
06:00 +36°C° 0 mm 2 mps 748 mmHg 16%
07:00 +37°C° 0 mm 2 mps 749 mmHg 15%
08:00 +39°C° 0 mm 2 mps 749 mmHg 14%
09:00 +41°C° 0 mm 2 mps 749 mmHg 13%
10:00 +44°C° 0 mm 3 mps 749 mmHg 11%
11:00 +45°C° 0 mm 4 mps 749 mmHg 12%
12:00 +46°C° 0 mm 5 mps 749 mmHg 12%
13:00 +47°C° 0 mm 7 mps 749 mmHg 13%
14:00 +46°C° 0 mm 7 mps 749 mmHg 15%
15:00 +45°C° 0 mm 8 mps 749 mmHg 18%
16:00 +43°C° 0 mm 9 mps 750 mmHg 20%
17:00 +41°C° 0 mm 8 mps 750 mmHg 24%
18:00 +39°C° 0 mm 8 mps 750 mmHg 29%
19:00 +37°C° 0 mm 8 mps 751 mmHg 33%
20:00 +35°C° 0 mm 7 mps 751 mmHg 35%
21:00 +34°C° 0 mm 6 mps 751 mmHg 36%
22:00 +33°C° 0 mm 5 mps 751 mmHg 38%
23:00 +32°C° 0 mm 5 mps 751 mmHg 39%

Day after tomorrow, 26 July, Monday

Time Temperature Precipitation Wind Pressure Humidity
00:00 +32°C° 0 mm 5 mps 751 mmHg 40%
01:00 +30°C° 0 mm 5 mps 751 mmHg 41%
02:00 +30°C° 0 mm 5 mps 751 mmHg 40%
03:00 +30°C° 0 mm 5 mps 751 mmHg 39%
04:00 +29°C° 0 mm 5 mps 751 mmHg 38%
05:00 +30°C° 0 mm 6 mps 751 mmHg 37%
06:00 +32°C° 0 mm 6 mps 752 mmHg 37%
07:00 +33°C° 0 mm 7 mps 752 mmHg 37%
08:00 +35°C° 0 mm 7 mps 752 mmHg 32%
09:00 +38°C° 0 mm 7 mps 752 mmHg 26%
10:00 +40°C° 0 mm 7 mps 752 mmHg 21%
11:00 +41°C° 0 mm 7 mps 752 mmHg 18%
12:00 +41°C° 0 mm 8 mps 752 mmHg 15%
13:00 +43°C° 0 mm 8 mps 752 mmHg 13%
14:00 +43°C° 0 mm 9 mps 752 mmHg 13%
15:00 +42°C° 0 mm 9 mps 752 mmHg 13%
16:00 +40°C° 0 mm 10 mps 752 mmHg 13%
17:00 +38°C° 0 mm 9 mps 752 mmHg 16%
18:00 +37°C° 0 mm 9 mps 752 mmHg 20%
19:00 +34°C° 0 mm 9 mps 753 mmHg 24%
20:00 +32°C° 0 mm 8 mps 753 mmHg 27%
21:00 +30°C° 0 mm 7 mps 753 mmHg 31%
22:00 +29°C° 0 mm 6 mps 753 mmHg 34%
23:00 +28°C° 0 mm 5 mps 753 mmHg 34%

27 July, Tuesday

Time Temperature Precipitation Wind Pressure Humidity
00:00 +28°C° 0 mm 5 mps 752 mmHg 34%
01:00 +28°C° 0 mm 5 mps 752 mmHg 34%
02:00 +28°C° 0 mm 5 mps 752 mmHg 34%
03:00 +27°C° 0 mm 4 mps 752 mmHg 33%
04:00 +27°C° 0 mm 4 mps 752 mmHg 32%
05:00 +28°C° 0 mm 5 mps 752 mmHg 28%
06:00 +29°C° 0 mm 6 mps 753 mmHg 24%
07:00 +32°C° 0 mm 6 mps 753 mmHg 21%
08:00 +33°C° 0 mm 7 mps 753 mmHg 19%
09:00 +35°C° 0 mm 7 mps 753 mmHg 17%
10:00 +38°C° 0 mm 8 mps 753 mmHg 15%
11:00 +38°C° 0 mm 8 mps 752 mmHg 14%
12:00 +39°C° 0 mm 8 mps 752 mmHg 14%
13:00 +40°C° 0 mm 8 mps 751 mmHg 13%
14:00 +40°C° 0 mm 8 mps 751 mmHg 13%
15:00 +40°C° 0 mm 8 mps 751 mmHg 13%
16:00 +40°C° 0 mm 8 mps 750 mmHg 13%
17:00 +39°C° 0 mm 8 mps 750 mmHg 14%
18:00 +38°C° 0 mm 7 mps 750 mmHg 15%
19:00 +35°C° 0 mm 7 mps 750 mmHg 16%
20:00 +34°C° 0 mm 6 mps 750 mmHg 19%
21:00 +32°C° 0 mm 6 mps 750 mmHg 22%
22:00 +30°C° 0 mm 5 mps 751 mmHg 25%
23:00 +29°C° 0 mm 5 mps 750 mmHg 25%

28 July, Wednesday

Time Temperature Precipitation Wind Pressure Humidity
00:00 +29°C° 0 mm 5 mps 750 mmHg 25%
01:00 +28°C° 0 mm 4 mps 750 mmHg 25%
02:00 +28°C° 0 mm 4 mps 750 mmHg 24%
03:00 +27°C° 0 mm 3 mps 750 mmHg 22%
04:00 +27°C° 0 mm 3 mps 749 mmHg 20%
05:00 +28°C° 0 mm 4 mps 750 mmHg 19%
06:00 +29°C° 0 mm 4 mps 750 mmHg 18%
07:00 +30°C° 0 mm 5 mps 750 mmHg 16%
08:00 +33°C° 0 mm 5 mps 750 mmHg 15%
09:00 +34°C° 0 mm 5 mps 750 mmHg 14%
10:00 +36°C° 0 mm 5 mps 750 mmHg 13%
11:00 +37°C° 0 mm 5 mps 750 mmHg 13%
12:00 +37°C° 0 mm 5 mps 750 mmHg 13%
13:00 +39°C° 0 mm 6 mps 749 mmHg 14%
14:00 +36°C° 0 mm 7 mps 750 mmHg 22%
15:00 +33°C° 0 mm 9 mps 750 mmHg 31%
16:00 +31°C° 0 mm 11 mps 750 mmHg 40%
17:00 +29°C° 0 mm 10 mps 750 mmHg 45%
18:00 +28°C° 0 mm 9 mps 750 mmHg 50%
19:00 +27°C° 0 mm 7 mps 750 mmHg 56%
20:00 +26°C° 0 mm 7 mps 750 mmHg 58%
21:00 +24°C° 0 mm 8 mps 751 mmHg 60%
22:00 +24°C° 0 mm 8 mps 751 mmHg 62%
23:00 +24°C° 0 mm 6 mps 750 mmHg 60%

29 July, Thursday

Time Temperature Precipitation Wind Pressure Humidity
00:00 +25°C° 0 mm 5 mps 750 mmHg 57%
01:00 +25°C° 0 mm 4 mps 750 mmHg 54%
02:00 +25°C° 0 mm 4 mps 750 mmHg 55%
03:00 +25°C° 0 mm 5 mps 750 mmHg 57%
04:00 +23°C° 0 mm 5 mps 750 mmHg 58%
05:00 +23°C° 0 mm 5 mps 750 mmHg 58%
06:00 +23°C° 0 mm 5 mps 751 mmHg 59%
07:00 +23°C° 0 mm 5 mps 751 mmHg 60%
08:00 +25°C° 0.1 mm 5 mps 751 mmHg 55%
09:00 +26°C° 0.1 mm 4 mps 751 mmHg 50%
10:00 +27°C° 0.1 mm 4 mps 751 mmHg 46%
11:00 +27°C° 0 mm 4 mps 751 mmHg 42%
12:00 +28°C° 0 mm 4 mps 751 mmHg 38%
13:00 +29°C° 0 mm 4 mps 750 mmHg 34%
14:00 +30°C° 0 mm 3 mps 750 mmHg 29%
15:00 +32°C° 0 mm 2 mps 750 mmHg 24%
16:00 +35°C° 0 mm 2 mps 749 mmHg 19%
17:00 +34°C° 0 mm 2 mps 749 mmHg 20%
18:00 +33°C° 0 mm 3 mps 749 mmHg 21%
19:00 +31°C° 0 mm 3 mps 750 mmHg 22%
20:00 +29°C° 0 mm 3 mps 750 mmHg 24%
21:00 +28°C° 0 mm 3 mps 750 mmHg 25%
22:00 +27°C° 0 mm 3 mps 750 mmHg 27%
23:00 +26°C° 0 mm 3 mps 750 mmHg 28%
Show more